Wind_Speed
5 5 6 7 8 9 9 7 5 6 5 3 2 3 4 5 4 4 4 5 3 5 6 8 8 10 10 9 9 5 1 4 8 7 8 7 6 7 8 9 10 10 11 14 19 24 28 31 32 33 33 33 34 35 36 35 34 35 36 38 38 38 38 37 37 36 35 34 33 32 33 34 33 31 30 30 30 28 27 25 25 25 25 25 24 23
4 7 7 8 9 9 8 8 7 7 6 4 3 4 4 5 5 5 3 4 0 4 5 4 6 10 10 10 9 3 2 7 10 9 9 9 8 8 8 10 10 9 8 7 13 20 24 27 30 32 32 33 33 35 37 37 37 36 36 38 39 39 39 39 38 38 38 37 36 35 35 36 35 33 32 32 31 29 27 25 24 24 24 24 23 22
4 7 8 10 10 10 10 10 9 6 6 5 4 2 4 3 3 4 3 3 1 3 4 1 4 9 10 10 9 4 6 8 10 10 10 10 9 9 10 10 9 9 8 7 10 16 22 26 29 31 32 34 35 36 37 38 39 37 36 37 38 38 39 39 39 39 39 39 38 37 35 35 34 33 33 32 30 28 27 25 23 23 23 22 22 21
6 8 11 12 10 13 12 11 8 5 5 5 3 2 4 2 2 4 4 2 1 1 2 1 1 6 7 7 8 8 9 9 9 9 9 8 10 11 11 9 10 11 11 10 10 12 18 23 26 29 33 35 35 35 36 37 38 38 38 38 38 38 39 39 39 39 39 38 36 35 34 32 31 31 30 29 29 29 28 27 25 23 22 22 21 19
9 7 10 10 9 13 12 9 9 6 5 5 5 6 4 3 5 4 2 2 2 2 1 3 4 6 5 5 9 7 6 8 7 7 9 9 10 11 8 8 10 12 11 11 12 11 14 19 25 30 33 33 34 35 37 38 38 39 40 40 40 39 40 40 40 39 38 36 35 33 31 29 28 28 27 27 29 30 29 28 27 24 22 21 21 20
9 6 9 10 7 10 10 9 9 7 5 5 6 9 8 7 5 2 4 4 4 3 3 1 1 6 4 4 9 6 3 7 6 6 10 11 11 10 8 10 10 9 9 10 10 10 13 19 25 28 31 31 32 35 38 39 40 39 40 41 41 40 40 40 40 40 38 37 36 34 32 30 29 28 29 30 31 30 29 28 25 23 21 21 21 20
5 4 10 12 9 10 9 8 9 8 6 5 6 9 8 5 5 5 6 4 2 3 3 2 4 5 6 4 7 4 5 9 6 6 11 11 10 10 10 11 9 8 9 8 8 8 11 17 20 24 29 31 34 37 38 38 39 39 39 39 40 40 40 40 40 39 39 37 36 36 35 35 33 31 31 31 29 27 27 25 23 21 21 20 19 18
4 6 8 10 9 9 9 7 8 8 7 5 5 6 8 6 7 7 7 4 2 3 3 4 3 3 5 5 6 3 4 9 8 8 11 10 11 11 11 11 9 10 10 8 9 9 11 16 20 24 30 34 36 37 37 37 37 38 38 38 39 39 39 39 39 39 39 38 38 37 36 35 34 33 30 27 25 24 23 22 21 20 19 19 17 15
4 10 11 12 9 6 7 7 9 9 5 6 5 6 7 6 6 6 6 3 1 1 3 4 1 2 5 6 6 4 2 7 8 9 10 10 12 12 12 11 11 11 9 8 9 9 12 17 23 26 29 33 35 35 34 36 37 37 37 36 36 37 38 38 38 38 39 39 38 37 35 34 33 31 27 24 22 21 20 19 19 18 18 17 15 14
0 7 9 12 10 6 8 8 10 12 6 4 5 6 4 4 5 4 5 3 2 1 4 6 2 2 5 6 4 3 2 6 8 9 9 9 10 10 10 11 10 8 7 7 7 9 13 18 22 23 23 26 29 30 31 32 33 33 34 34 34 36 37 38 38 38 39 39 38 36 36 34 31 28 25 22 19 18 18 18 18 17 17 15 14 13
2 0 2 5 5 5 6 4 4 8 7 5 6 6 6 5 4 3 2 3 1 3 6 7 4 2 4 6 4 4 4 6 6 7 8 8 8 7 8 8 8 7 6 6 6 7 10 12 15 17 20 22 24 26 27 28 29 31 32 33 34 35 36 37 37 38 38 38 38 37 35 34 30 27 25 23 20 19 19 18 18 17 16 15 14 14
4 2 1 1 2 2 5 4 3 1 5 7 4 4 4 3 3 3 4 2 2 5 6 5 3 4 4 5 5 6 6 6 7 7 9 9 9 7 7 7 7 6 6 6 6 5 5 6 9 13 17 19 20 23 25 26 27 28 30 32 33 34 34 35 36 36 37 37 37 36 34 32 30 28 27 25 23 21 20 19 18 17 17 16 16 15
3 1 1 1 1 3 6 4 2 4 0 4 4 5 4 1 1 0 3 1 3 5 4 3 2 3 5 7 9 9 11 10 9 8 9 8 8 8 6 6 5 5 5 5 6 5 5 5 8 12 15 16 18 21 23 25 26 26 28 29 31 33 33 33 34 35 35 36 35 34 32 31 30 29 28 26 23 21 20 19 19 18 18 17 17 17
1 4 2 1 1 2 6 6 3 0 1 4 6 5 5 2 2 3 4 1 3 5 3 2 2 3 3 6 11 14 15 12 6 7 9 9 8 8 6 5 5 5 5 5 5 5 5 6 9 12 14 16 17 19 20 22 24 25 26 27 29 31 31 31 32 33 33 34 33 32 30 30 29 28 26 24 22 20 19 19 18 18 17 16 16 16
7 4 2 4 1 1 4 4 5 6 4 4 5 6 5 5 4 4 3 3 4 3 2 2 2 3 3 4 8 10 11 9 5 5 7 7 7 6 4 4 5 6 5 4 5 5 6 8 11 12 14 15 17 18 19 20 22 23 25 26 27 28 29 29 30 30 31 31 30 29 29 28 27 26 24 22 21 20 19 18 17 16 15 14 14 13
8 5 3 2 1 3 3 2 2 6 5 3 3 5 5 5 5 3 3 5 4 1 2 2 2 4 4 6 9 6 6 8 6 5 5 6 6 3 3 6 5 5 5 4 5 5 7 9 11 12 14 16 17 18 19 20 21 23 24 25 26 27 27 28 28 28 28 28 28 26 26 24 23 23 23 22 20 19 19 18 17 17 15 14 13 13
6 2 4 2 1 2 3 2 0 3 5 2 2 4 5 4 7 4 2 1 3 1 3 2 3 5 3 7 9 5 6 8 6 6 5 6 5 2 5 6 5 6 5 5 5 5 6 8 11 13 14 16 17 18 19 20 21 22 23 24 24 25 26 26 27 26 26 26 25 23 22 22 23 23 23 23 21 20 18 17 18 17 16 15 14 13
5 2 3 1 2 2 1 3 1 1 4 4 4 6 3 3 3 3 2 2 2 3 4 0 4 4 1 3 6 7 7 8 8 8 7 6 5 5 7 6 6 6 5 5 5 4 5 7 9 11 12 14 15 16 17 18 19 21 22 23 24 24 25 25 25 24 24 24 23 23 23 23 23 23 23 22 21 19 18 18 18 18 17 16 15 13
4 3 3 1 2 2 2 3 0 2 2 3 4 3 3 3 2 2 3 2 1 4 4 3 4 4 4 4 4 5 6 8 8 7 6 7 7 7 7 7 7 6 5 5 4 4 4 6 9 11 11 12 13 14 15 16 17 19 20 22 23 24 24 23 23 23 23 23 24 24 24 24 23 22 22 21 20 20 19 19 19 19 18 16 14 13
3 4 1 2 1 1 3 2 4 2 1 2 0 0 1 2 4 3 3 3 3 4 4 4 4 4 6 6 6 8 9 9 10 7 6 8 9 8 8 8 7 6 5 5 5 4 4 6 9 11 12 13 14 14 15 16 17 18 20 21 22 22 22 23 23 24 24 24 24 25 24 24 22 22 21 21 21 20 20 20 20 19 17 16 15 14
2 4 2 1 2 1 1 2 6 7 4 2 3 4 2 1 2 2 1 3 4 3 4 3 4 6 6 5 9 11 11 11 10 7 6 8 9 8 8 7 7 6 6 5 5 4 4 6 8 10 11 12 13 13 15 17 18 19 20 21 22 22 22 23 23 24 24 24 24 24 23 22 22 22 22 22 21 21 21 20 20 18 17 17 16 16
2 3 4 3 1 3 4 3 5 6 5 4 4 6 7 3 4 4 4 1 2 3 5 4 5 8 6 5 9 10 10 9 7 5 6 8 8 7 7 7 7 7 7 6 5 5 5 8 10 10 11 11 12 13 14 16 18 19 20 21 22 22 23 23 23 23 23 23 23 23 23 22 23 23 23 22 21 21 21 20 19 19 19 19 19 19
3 4 5 2 3 5 4 1 3 3 2 2 2 3 4 2 4 6 6 4 1 3 3 3 5 9 5 6 8 9 8 6 4 5 6 7 6 7 6 6 6 6 6 5 5 5 6 9 10 11 11 11 12 13 14 16 18 19 20 21 22 22 23 23 23 23 23 24 24 24 25 24 24 23 22 22 22 22 22 21 21 21 22 23 23 22
3 4 4 1 2 3 4 3 3 3 3 2 3 1 2 3 3 5 5 4 3 4 3 2 6 9 4 4 6 5 5 4 4 5 6 6 5 6 6 6 6 6 4 5 5 5 6 9 9 11 12 12 13 15 16 17 19 20 21 22 23 24 24 24 25 25 25 26 26 26 26 25 24 24 23 24 24 24 24 23 23 24 24 25 25 23
3 3 5 3 2 3 3 3 2 0 2 2 3 2 4 4 4 3 1 2 2 6 7 5 9 8 2 0 1 4 6 5 6 5 5 5 5 5 5 5 5 5 5 5 5 5 6 7 9 11 13 14 15 17 18 19 21 22 23 24 25 26 26 26 27 28 27 27 27 27 26 26 25 25 25 26 26 26 26 26 26 26 26 26 25 24
5 5 5 6 6 6 6 6 5 4 2 2 4 5 6 7 7 5 2 2 7 5 7 9 10 3 3 5 5 5 4 4 6 6 4 5 5 4 4 4 5 5 5 6 6 6 6 7 8 11 13 15 17 18 19 20 22 24 24 25 26 27 27 27 28 28 28 28 28 28 28 27 27 27 28 28 28 28 28 28 28 27 26 25 24 23
4 4 7 11 12 11 9 6 7 10 8 8 9 8 8 8 8 6 3 6 7 3 5 12 8 2 1 1 4 4 4 4 6 6 5 5 4 3 3 4 4 5 5 6 6 6 6 6 8 11 13 15 17 19 20 22 23 24 25 26 26 27 28 28 28 29 29 29 30 30 29 29 29 29 30 30 30 30 30 29 28 27 26 24 23 23
5 5 9 11 10 7 6 6 9 14 14 14 13 12 11 9 9 10 11 9 5 4 9 8 1 5 7 5 6 7 5 5 6 6 5 5 5 3 3 4 4 5 5 5 7 7 8 8 7 10 13 15 16 18 20 22 23 24 25 26 27 28 29 29 29 30 30 30 31 31 31 31 31 31 32 32 31 31 30 29 27 26 26 24 22 22
5 7 8 8 6 4 4 6 10 13 11 11 13 15 14 13 14 16 17 9 7 7 14 4 4 13 8 7 9 9 6 7 7 5 4 4 5 4 5 5 5 6 6 7 9 9 9 9 7 9 13 15 17 19 20 22 23 24 25 26 27 29 29 30 31 31 32 32 32 33 33 32 33 33 33 32 32 30 29 28 27 26 25 23 22 21
4 5 4 7 6 4 4 6 10 12 8 7 10 14 15 18 20 21 19 13 10 16 17 6 11 18 6 8 11 9 8 9 5 3 4 4 6 5 5 6 6 8 9 10 11 11 9 8 8 11 14 17 20 23 23 24 24 25 26 27 28 29 31 32 32 33 33 33 34 34 34 34 34 34 33 32 32 31 30 28 27 25 24 23 22 21
2 4 3 6 4 4 4 5 7 10 9 7 9 13 16 18 19 18 16 12 12 18 17 10 15 17 5 9 10 6 5 4 3 4 6 6 6 4 5 6 7 8 10 11 11 9 8 8 9 12 17 20 24 25 26 26 26 26 27 28 30 31 32 33 33 34 34 35 35 35 35 35 35 34 34 33 32 31 30 28 26 25 24 23 22 21
3 3 1 6 5 6 3 6 6 4 3 3 10 16 19 18 15 13 10 9 11 15 12 9 14 13 5 6 5 3 3 4 6 8 8 7 6 6 7 8 9 10 12 12 10 9 10 10 11 15 19 23 25 26 27 28 28 28 30 31 32 33 34 34 35 35 35 36 37 37 36 36 36 35 34 33 32 31 29 28 27 26 24 23 22 21
6 6 2 5 7 5 2 7 8 6 4 6 13 16 17 14 10 8 8 11 15 13 9 11 15 9 4 5 5 5 6 8 9 9 8 8 7 7 8 9 10 11 12 11 10 11 12 13 16 21 25 27 29 31 32 32 32 32 33 33 34 34 35 35 36 36 37 38 38 37 37 36 36 35 34 33 32 30 29 28 27 26 25 23 22 20
6 8 5 5 5 2 3 7 8 6 5 9 7 10 15 15 13 13 14 16 16 12 10 13 13 4 4 6 7 8 9 8 8 9 9 8 7 7 9 10 10 11 10 9 10 12 13 16 21 26 28 31 33 33 32 32 32 32 32 33 34 35 36 36 37 37 38 38 38 37 37 36 36 35 34 33 32 30 29 28 27 26 24 22 21 19
7 7 4 3 5 3 3 7 7 8 11 6 2 5 13 17 18 19 19 15 14 14 15 18 18 10 8 8 6 7 8 7 7 9 9 8 8 8 9 10 11 11 10 10 11 12 14 18 22 25 28 31 32 32 31 31 31 31 32 34 35 35 35 36 37 37 37 38 38 38 38 37 36 36 34 33 32 30 29 28 27 26 24 22 20 18
9 7 3 3 4 3 3 6 8 7 6 5 5 1 5 7 9 11 12 11 12 15 16 20 22 15 9 7 3 5 8 7 5 7 10 10 8 8 10 11 12 12 12 13 14 16 20 25 29 30 32 32 32 33 33 33 32 32 33 34 35 34 34 35 35 36 37 38 38 38 38 38 37 36 35 34 32 31 29 28 27 25 23 22 20 18
9 8 5 3 3 4 4 5 4 6 9 9 7 4 6 6 8 9 8 12 15 17 15 17 19 13 8 8 8 6 5 3 6 8 9 9 9 11 13 13 12 13 14 15 17 19 23 28 30 30 29 30 32 34 35 34 34 34 34 33 33 33 33 34 34 35 37 38 39 39 38 38 38 37 36 34 33 31 30 28 27 25 23 22 20 18
6 6 7 6 3 4 5 3 2 5 10 8 5 7 10 10 11 11 6 9 11 12 13 15 16 13 9 10 10 5 3 3 11 9 6 9 13 13 12 12 12 13 14 13 14 16 17 20 23 25 27 29 32 34 35 36 36 35 34 33 33 33 33 33 34 35 37 38 39 39 38 37 37 37 36 35 33 32 30 28 26 25 23 21 19 18
5 2 5 7 3 3 6 5 5 8 10 4 8 10 11 11 11 10 2 8 6 9 13 14 14 13 12 13 10 7 6 7 12 8 5 10 12 10 10 11 12 14 16 15 13 15 15 17 19 22 25 29 32 33 35 37 37 35 34 33 34 33 33 34 35 36 38 39 39 39 38 37 36 36 35 34 32 31 29 27 26 25 23 21 19 17
5 3 3 6 4 5 6 5 4 6 7 5 9 10 10 11 13 11 2 9 7 9 11 12 13 14 14 12 7 7 7 10 10 7 6 7 6 7 9 10 11 12 15 14 13 13 15 18 21 24 28 32 34 35 36 37 36 35 34 33 33 33 33 34 35 36 36 37 37 37 36 36 36 35 35 34 32 30 28 27 26 24 23 21 18 16
2 1 2 5 6 6 7 6 4 5 6 7 7 9 12 12 11 7 8 8 7 8 8 10 13 14 11 8 6 5 9 12 10 4 2 3 3 4 6 7 8 9 10 11 11 12 17 21 24 27 30 33 34 36 38 38 36 34 33 33 33 33 32 33 33 33 34 35 35 35 35 35 35 34 34 33 31 30 27 26 25 24 22 20 18 16
3 2 1 3 5 4 4 4 3 6 6 7 6 5 8 9 6 7 8 4 6 8 7 8 11 11 8 8 8 8 11 13 9 3 1 3 5 4 3 4 4 4 4 7 10 14 19 20 21 23 25 29 33 36 39 38 35 33 32 32 33 33 33 33 34 35 35 35 35 34 34 33 33 33 33 31 30 29 27 25 24 22 20 19 17 15
7 6 3 5 5 3 3 4 4 7 5 11 12 4 4 6 7 6 3 3 6 7 7 8 9 8 8 9 10 10 11 11 8 4 5 5 4 3 3 3 4 5 6 8 11 17 20 20 20 22 25 28 33 36 38 38 35 32 32 32 33 33 34 35 36 36 36 36 35 34 33 33 32 32 31 30 29 28 27 25 23 21 19 18 17 15
6 7 6 6 4 4 5 8 7 5 7 13 14 8 8 8 6 6 7 5 5 5 5 7 8 8 9 9 9 10 10 10 8 5 5 6 4 3 3 4 4 6 9 10 14 18 21 21 21 22 24 28 33 35 38 38 35 32 32 32 32 33 34 35 36 36 35 35 34 34 33 32 31 30 30 29 28 27 26 24 22 20 19 17 16 15
10 9 6 5 6 6 7 10 8 4 7 10 7 7 12 14 7 6 9 7 5 5 5 6 7 9 9 9 8 7 7 8 7 5 5 5 5 4 5 5 7 8 9 10 13 16 18 18 19 21 22 26 31 33 35 36 35 33 32 32 33 35 36 37 37 36 35 35 34 34 33 31 30 29 28 28 27 26 25 24 22 20 18 17 15 13
6 5 4 3 5 6 7 7 3 2 3 7 4 2 8 12 7 5 7 6 5 6 6 5 6 8 8 8 7 6 6 6 6 5 5 5 5 5 6 6 7 9 10 10 12 15 15 14 17 20 21 23 27 30 32 33 34 33 33 33 34 36 37 38 38 36 35 35 34 33 33 31 30 28 27 26 25 24 23 22 21 19 18 17 15 12
3 4 4 3 5 6 8 7 7 6 7 9 7 2 1 4 5 5 6 6 5 5 6 5 5 5 6 7 7 8 7 6 6 6 6 5 6 6 6 6 8 10 12 12 14 17 17 17 18 20 21 23 26 29 30 31 31 31 32 33 35 37 38 38 38 36 35 35 34 33 32 31 30 29 28 26 25 23 22 20 19 18 18 17 15 14
2 5 6 5 6 7 7 5 5 5 4 4 5 3 2 4 5 4 3 4 4 4 4 4 4 5 6 6 7 7 6 5 7 7 6 5 6 6 6 6 8 10 11 12 15 17 18 19 19 20 22 23 25 27 28 28 28 29 31 33 35 37 37 37 36 36 35 34 34 33 32 31 31 30 29 27 25 23 21 20 19 18 17 16 15 14
4 6 6 5 6 6 6 2 3 3 0 4 6 6 5 5 6 4 2 4 6 5 5 4 3 4 6 6 6 6 5 6 7 6 6 6 6 5 6 6 8 10 10 12 15 17 18 19 20 21 22 22 24 26 27 27 27 28 31 34 36 37 37 35 34 34 34 33 33 33 32 31 30 30 29 28 25 22 20 19 18 18 17 15 14 13
6 6 4 4 7 9 8 6 6 5 3 6 8 8 6 4 6 6 5 5 6 6 7 6 3 2 3 4 5 6 6 6 6 6 6 6 6 6 6 7 9 10 11 12 14 16 17 18 20 21 22 22 25 27 27 28 29 30 32 35 37 37 37 36 34 33 33 33 33 33 33 32 31 30 29 28 26 24 21 18 17 17 16 16 15 13
6 7 7 7 7 8 7 7 7 4 3 5 6 6 5 4 7 8 7 7 7 6 6 6 5 4 3 2 3 6 6 4 5 6 6 5 5 7 8 10 12 12 13 15 16 17 18 19 19 21 22 23 25 27 28 28 29 30 33 36 38 38 38 38 37 35 34 34 35 35 34 33 32 31 29 27 26 26 24 21 18 16 16 16 14 12
Wind_Direction
153 159 187 188 188 198 211 222 230 236 226 219 249 241 219 210 243 243 246 285 171 159 232 216 221 245 247 256 255 255 252 236 248 249 241 234 227 223 221 224 221 219 231 231 221 216 215 215 216 216 216 216 216 215 216 216 216 215 215 213 212 212 213 213 213 213 214 213 213 214 216 220 223 225 229 232 235 237 239 241 243 244 244 245 245 245
157 182 197 185 177 183 205 229 237 240 249 269 269 274 264 220 237 258 251 298 101 164 250 239 225 254 254 253 260 226 183 240 234 229 235 231 231 231 225 228 225 228 241 232 222 219 216 214 214 214 214 214 215 215 215 215 216 215 214 214 213 213 212 213 215 215 215 215 215 216 218 221 224 227 229 232 233 235 237 239 242 244 244 245 246 247
186 206 199 184 171 168 197 225 230 242 247 244 257 274 271 244 243 278 269 285 27 168 257 291 210 252 259 253 261 232 208 239 232 220 224 220 225 232 226 228 227 234 241 229 227 223 215 213 211 211 213 214 215 216 215 216 216 214 213 213 214 214 213 215 216 216 217 219 220 221 223 224 227 229 231 233 235 235 236 238 240 242 243 244 245 247
197 210 194 186 175 173 194 215 216 244 252 225 210 212 260 261 196 254 257 227 64 140 196 115 251 266 269 272 271 238 221 241 242 229 232 223 224 231 227 223 217 221 227 226 231 226 215 213 210 209 211 213 214 215 215 215 215 214 214 214 214 214 216 217 218 219 220 221 221 223 226 228 229 229 231 234 236 236 236 238 238 240 242 243 244 246
206 200 177 180 185 182 187 200 204 221 248 239 211 207 238 223 203 226 207 135 24 1 112 97 350 298 258 261 264 248 229 245 248 239 248 245 235 240 245 238 224 218 218 216 221 221 210 209 210 211 212 212 212 213 215 215 214 214 214 215 216 216 216 218 219 220 220 219 218 218 220 224 226 228 230 231 231 231 233 235 236 237 239 242 244 245
219 197 160 166 180 184 183 194 199 195 222 254 228 213 219 207 199 181 132 92 47 323 286 144 306 292 291 263 252 267 299 262 245 226 240 245 241 242 247 242 233 228 227 220 222 218 208 208 210 212 212 211 212 214 215 216 216 215 215 216 216 216 217 218 220 220 218 217 215 213 212 214 217 221 224 225 227 227 228 231 232 234 238 241 243 243
218 160 161 173 174 178 186 199 199 183 193 247 240 211 205 176 143 142 152 121 120 232 287 94 173 254 316 299 257 288 308 273 267 246 245 244 242 237 233 236 231 229 235 232 236 229 214 211 209 210 212 210 213 216 217 217 217 217 217 217 217 217 217 218 219 219 217 216 215 214 214 215 215 218 222 224 227 228 229 230 230 232 236 239 240 241
155 138 164 177 170 180 189 200 199 175 174 229 241 180 160 150 154 166 165 154 187 217 335 24 134 222 293 275 269 312 305 286 288 266 255 245 241 238 234 238 231 224 225 223 227 225 216 213 210 210 211 211 214 216 216 216 217 218 218 219 218 218 218 218 217 217 217 216 216 216 217 218 219 221 224 224 227 230 231 230 229 230 230 229 231 234
137 164 180 175 171 188 190 196 188 167 182 233 209 154 148 152 157 158 150 138 25 95 300 309 121 190 269 276 299 337 304 293 286 262 256 246 238 237 236 236 232 229 226 221 223 221 217 214 213 213 213 213 215 215 216 217 218 219 219 220 220 219 219 218 218 218 218 218 219 218 218 219 221 223 224 226 228 228 226 223 219 218 218 219 222 228
190 183 182 172 179 192 188 201 185 171 194 215 149 114 83 82 88 100 122 112 51 80 243 256 206 191 270 282 303 337 296 271 270 267 262 250 241 239 241 241 237 238 234 230 233 231 226 221 218 217 216 216 215 214 217 218 218 218 218 218 219 220 220 219 219 219 219 219 219 220 219 219 219 219 221 222 221 215 210 207 205 207 211 214 217 220
308 121 136 156 181 192 176 182 184 181 178 137 107 83 60 44 48 51 65 89 86 269 251 244 219 190 264 280 252 227 230 226 241 273 278 272 269 256 251 249 241 236 231 225 225 229 228 223 221 221 221 220 217 216 218 218 218 218 218 217 218 220 220 219 219 219 219 219 219 220 220 219 217 216 215 213 206 201 200 200 202 206 210 212 214 213
7 80 148 150 173 149 116 96 20 290 165 127 96 100 89 7 16 30 1 43 190 255 261 249 206 169 224 263 246 236 248 229 218 249 266 275 283 273 260 255 243 228 218 207 203 213 211 202 208 213 218 222 220 220 220 219 219 218 218 218 217 218 218 218 218 217 218 218 218 220 220 218 218 216 213 208 202 200 200 203 205 205 207 207 208 210
24 139 259 321 221 141 122 127 33 360 33 129 115 122 128 334 23 190 282 283 222 249 260 246 198 192 231 250 255 257 262 252 226 220 242 260 275 276 264 254 245 222 205 196 198 210 210 204 207 209 213 216 217 219 220 220 219 218 218 218 217 217 217 216 217 216 216 217 217 217 217 217 217 215 211 207 205 205 206 208 207 204 205 207 211 218
236 292 303 101 295 156 150 166 156 89 246 151 143 143 151 141 120 208 243 273 256 260 271 258 241 258 268 258 250 245 251 259 243 220 234 243 255 265 257 241 237 227 215 210 212 215 218 217 214 213 215 216 216 217 217 217 216 216 216 215 216 217 216 215 215 215 215 215 216 216 216 216 215 211 209 209 209 209 209 209 208 207 210 215 219 220
189 241 233 171 186 166 170 190 173 156 166 180 163 143 158 166 161 197 214 210 238 267 279 267 238 203 198 248 248 237 254 279 283 254 252 251 257 269 270 251 234 235 236 230 230 230 229 224 215 214 216 216 218 218 216 215 214 212 212 212 212 212 211 211 211 211 212 212 212 213 214 214 212 209 207 208 210 209 206 204 204 205 207 207 204 200
179 212 280 253 158 127 163 229 149 132 159 216 140 127 183 186 149 153 189 185 185 231 249 223 233 213 208 276 277 255 267 282 283 295 304 284 283 291 250 241 230 238 246 232 229 236 238 232 224 220 219 219 219 218 217 216 213 212 211 210 210 209 208 206 205 206 206 206 206 206 207 206 204 204 203 202 202 202 202 200 199 198 195 192 188 187
168 207 318 336 69 116 154 195 126 141 177 190 122 177 213 155 116 123 200 149 105 197 250 200 251 284 318 297 290 293 286 282 284 290 280 269 286 279 233 234 233 239 241 232 227 229 231 226 224 225 223 222 221 219 219 218 215 214 212 209 207 205 204 202 201 200 199 200 199 198 199 199 199 199 198 197 196 196 197 196 194 191 185 184 186 185
155 147 317 37 146 247 148 136 9 16 141 132 170 202 188 112 96 113 168 3 58 227 271 225 227 276 315 271 309 326 292 278 273 262 252 255 263 253 242 239 238 239 245 251 243 232 220 206 207 213 216 219 221 222 222 219 216 214 211 209 204 201 198 196 196 195 194 193 192 190 191 192 193 193 193 194 194 192 191 187 185 185 182 181 185 186
137 122 310 354 170 279 16 105 131 339 120 147 196 198 132 156 208 135 169 206 178 229 281 292 250 252 204 218 298 301 258 258 264 254 245 246 237 234 240 242 244 247 252 251 234 223 208 188 186 190 197 206 210 214 215 211 209 207 206 204 200 197 194 191 190 188 186 187 186 183 183 183 184 186 188 189 189 187 183 180 180 182 183 183 186 188
134 124 256 293 240 302 18 105 181 205 354 29 102 230 81 149 180 173 170 166 170 214 254 286 285 254 222 213 219 238 241 247 258 255 240 239 233 226 227 229 232 228 225 222 212 211 204 184 182 182 186 193 196 201 202 199 198 196 194 192 189 188 185 183 184 182 180 181 180 180 180 182 184 184 186 185 183 183 181 181 182 183 185 183 180 178
136 125 174 283 358 155 184 203 187 178 173 160 162 188 206 101 108 157 177 135 141 179 208 252 275 257 245 211 197 218 235 242 250 249 239 242 240 233 224 219 218 210 211 214 202 197 192 185 182 179 181 183 184 188 188 189 189 186 184 184 181 180 178 177 179 180 181 181 181 183 182 183 184 183 184 182 183 184 182 183 184 182 180 173 167 164
152 117 141 153 153 192 223 239 187 177 179 177 185 195 195 164 120 172 226 210 130 179 185 196 254 257 245 204 197 211 225 239 246 233 238 250 247 243 232 217 211 204 205 204 190 183 182 181 179 174 172 171 172 175 175 179 181 179 179 179 178 178 177 177 179 182 185 184 183 184 180 178 179 180 181 181 183 183 181 180 178 174 169 160 154 151
127 104 118 157 212 212 237 251 135 149 139 148 225 217 195 183 139 167 210 221 197 223 167 133 255 260 242 198 202 212 221 238 240 215 237 260 257 249 238 216 209 211 206 189 176 180 180 178 175 169 167 166 165 166 167 170 174 175 176 177 178 180 180 182 184 184 184 182 179 178 176 176 178 179 181 181 179 177 173 170 167 164 159 151 145 142
105 103 113 98 310 309 319 356 58 78 87 178 242 194 158 208 150 150 191 183 182 219 174 144 259 262 256 205 203 229 255 268 262 224 228 258 272 257 235 211 203 204 186 164 165 172 171 169 167 166 167 167 165 165 166 168 170 172 173 176 179 181 182 182 181 179 178 176 174 174 176 177 178 179 180 177 173 169 165 161 158 156 151 144 140 139
166 143 123 108 49 9 340 320 294 225 104 184 228 196 180 168 120 128 171 118 219 223 170 184 248 251 251 24 31 327 316 300 279 250 222 242 270 266 239 210 194 182 162 161 166 164 166 169 172 175 175 172 169 169 170 170 171 172 173 175 178 178 177 177 176 176 176 175 173 173 175 175 176 177 174 170 167 163 159 155 152 149 146 142 140 139
174 170 146 144 163 191 205 217 213 177 136 196 201 197 200 177 166 180 130 161 233 219 157 203 241 246 63 35 17 341 313 296 286 281 253 240 251 260 233 198 184 176 169 175 175 173 180 184 185 184 180 177 175 173 173 173 174 175 176 177 179 178 175 175 176 176 176 175 172 171 172 173 173 172 168 164 161 156 153 151 148 146 144 143 141 138
136 175 185 185 193 199 194 190 163 143 157 205 195 185 198 197 187 172 146 204 209 138 196 228 245 330 8 338 325 294 257 251 273 285 286 275 277 272 224 192 183 180 175 176 177 182 188 193 195 190 184 182 180 177 177 178 177 178 177 177 178 178 176 175 175 175 173 173 172 170 170 169 168 166 163 159 156 153 150 149 147 146 144 144 141 138
120 194 201 196 205 201 173 166 158 158 180 197 186 186 195 191 183 188 211 216 140 131 240 233 179 262 241 214 251 268 263 264 270 275 288 292 283 259 197 177 172 171 170 174 185 193 195 197 197 190 187 184 182 181 181 181 181 180 179 177 176 176 176 174 174 173 172 171 169 167 166 165 163 161 158 155 153 151 150 148 148 147 145 144 142 139
148 198 197 183 201 213 170 158 162 173 191 189 182 191 192 186 193 206 221 213 134 209 243 197 187 245 223 176 222 233 233 255 260 256 261 257 250 229 178 169 175 182 189 194 202 205 200 197 192 186 187 185 184 185 184 183 183 181 179 177 176 176 176 175 174 172 170 168 166 164 162 161 159 157 155 154 152 151 150 150 149 147 145 144 144 141
169 194 179 159 179 226 208 172 169 176 181 180 191 199 194 196 203 208 218 211 192 232 246 231 249 259 226 175 213 212 211 228 231 227 221 217 232 217 174 179 190 196 203 205 210 208 198 191 185 185 189 188 189 189 187 185 184 181 179 177 176 176 176 175 174 170 168 166 163 161 160 159 157 156 155 154 153 152 152 151 148 146 145 145 145 143
199 198 159 128 149 237 220 163 174 184 180 185 203 210 208 208 211 213 218 209 208 237 247 247 262 267 224 177 204 204 198 191 179 226 233 235 237 194 169 199 209 209 215 216 214 204 188 186 185 189 195 196 195 191 188 187 184 182 180 178 177 177 175 174 172 168 166 164 162 161 160 159 158 157 157 156 155 154 153 151 149 148 148 147 145 143
149 173 87 108 157 238 215 140 161 173 151 218 233 223 213 208 210 214 214 200 207 229 240 247 256 255 208 168 178 140 130 169 212 235 243 249 233 178 183 212 215 217 222 219 211 193 187 192 192 197 201 200 197 193 190 187 183 182 182 180 179 177 174 174 171 168 167 165 163 162 162 161 159 158 158 158 157 156 154 152 151 151 151 149 146 144
148 147 132 146 172 249 247 141 140 105 79 263 247 220 206 204 203 208 221 218 215 216 216 229 241 237 175 150 142 144 184 202 216 225 233 244 228 193 205 217 217 223 224 217 205 195 196 200 200 202 201 199 198 197 193 189 185 184 183 180 179 176 174 174 172 170 168 166 165 165 163 162 161 159 159 158 157 156 154 154 154 153 152 149 146 146
155 152 171 169 155 223 208 133 115 122 194 237 228 166 175 190 190 200 221 222 216 216 225 243 254 246 171 181 173 184 208 211 211 221 232 238 220 206 222 227 227 232 230 220 208 200 203 206 205 206 203 201 200 197 194 191 188 186 183 179 179 177 175 175 173 171 169 167 166 166 164 164 163 161 160 159 157 157 156 156 154 152 151 149 147 146
151 143 156 140 114 151 162 117 133 199 218 244 347 135 176 188 188 202 221 223 216 222 234 250 256 243 225 226 191 185 222 234 226 229 238 235 213 203 218 227 230 233 232 225 215 210 210 207 205 205 204 203 200 194 191 191 188 184 182 180 179 178 176 175 173 171 170 168 167 167 166 165 164 162 160 160 159 158 157 157 155 152 151 150 148 148
153 149 140 113 118 136 137 151 186 228 266 292 307 266 168 165 169 201 235 244 229 222 225 239 247 242 240 253 224 194 229 257 267 241 235 234 222 206 213 223 224 224 224 221 214 210 210 207 205 204 203 199 194 190 189 189 186 182 181 181 180 179 178 176 174 172 171 170 169 169 168 167 165 163 162 161 160 159 158 157 155 154 152 151 151 151
150 151 139 143 173 141 145 197 235 310 302 267 242 186 145 147 156 171 220 245 231 218 219 235 245 246 242 250 245 222 222 286 288 253 224 221 229 221 218 223 223 222 226 228 226 223 219 214 209 205 200 192 189 189 188 186 184 182 180 179 180 179 179 177 175 174 172 171 171 170 170 169 167 165 163 162 162 160 159 158 157 155 154 154 154 153
144 158 156 167 188 113 124 198 253 273 262 244 193 170 168 170 165 158 190 247 234 208 209 228 242 243 236 240 236 198 137 251 263 257 206 202 225 229 229 237 239 238 243 242 237 234 228 219 210 203 195 188 186 189 187 184 183 180 178 180 180 180 180 179 178 177 175 174 173 172 171 171 169 167 164 164 163 162 160 159 158 156 156 156 156 156
92 60 129 144 156 130 147 181 197 224 244 209 157 177 180 165 142 121 149 266 237 187 195 213 229 233 230 233 219 158 145 230 257 263 203 202 222 227 229 243 248 247 249 249 240 233 222 208 198 192 187 185 185 187 186 184 181 179 179 181 181 181 182 182 181 180 178 176 174 173 172 172 171 169 167 165 165 164 162 161 160 158 157 157 158 158
81 48 119 151 178 171 170 196 215 234 249 209 176 180 170 148 123 108 194 257 219 185 189 192 211 227 227 223 202 155 182 231 253 254 205 199 224 222 219 239 250 249 248 244 237 228 208 191 183 179 182 187 187 186 185 182 179 180 181 181 182 184 186 185 183 181 179 176 174 173 172 172 171 170 168 167 165 164 163 162 161 159 157 158 158 157
91 112 160 175 181 172 178 208 252 266 238 210 192 171 148 129 120 149 214 225 195 199 194 175 200 226 220 195 180 182 215 231 238 237 175 167 219 223 226 242 249 251 247 234 220 204 188 184 185 184 188 190 187 183 182 180 180 182 182 182 184 187 188 186 183 180 178 176 174 173 172 172 172 171 169 168 166 165 164 162 161 160 159 158 158 156
161 151 159 168 163 164 177 191 264 276 226 170 150 168 157 139 153 208 217 186 172 199 199 185 205 219 201 185 193 208 228 236 235 238 251 215 210 219 236 230 210 210 212 200 194 187 180 179 183 186 187 187 185 183 182 181 181 182 182 183 187 189 187 185 182 180 178 176 174 173 172 171 172 171 169 169 168 166 164 161 161 161 159 158 158 155
168 156 187 192 166 143 157 175 221 258 215 138 123 145 219 196 190 193 178 173 193 190 180 191 209 208 192 197 211 218 232 247 251 248 247 237 220 219 230 211 191 186 175 170 180 183 178 175 179 183 183 184 184 184 182 182 182 182 184 187 189 187 185 183 181 178 176 175 173 173 172 172 171 171 170 169 169 168 165 162 160 160 159 159 158 156
178 170 187 205 179 139 166 200 211 208 175 155 147 163 210 212 186 153 149 179 219 202 168 184 212 214 198 201 216 220 227 246 253 238 235 242 233 212 211 205 200 195 187 185 187 184 180 178 178 179 181 182 184 184 184 185 184 183 186 188 187 185 182 180 178 176 174 173 172 171 172 172 171 172 171 170 170 169 165 161 159 159 159 160 160 158
208 195 177 188 189 174 192 213 215 178 174 183 172 169 190 195 187 157 158 169 203 208 177 177 209 218 208 208 221 220 217 232 235 214 210 227 221 202 203 210 206 199 195 196 190 185 184 181 175 174 177 182 184 186 187 188 187 185 186 187 185 183 180 178 176 175 173 172 172 172 172 172 171 172 172 171 171 170 166 163 162 162 160 160 161 160
224 187 135 148 195 220 240 230 191 105 190 207 219 216 194 193 184 160 161 174 198 196 177 180 205 209 203 205 216 224 220 210 205 206 210 213 213 207 204 209 210 202 194 189 183 182 183 179 173 173 175 181 186 189 190 192 192 189 186 185 183 182 180 177 176 174 173 172 173 173 173 173 172 172 171 170 171 170 168 166 166 165 162 162 163 162
265 171 155 168 178 206 239 222 173 171 199 200 199 230 260 214 196 176 178 194 198 183 178 190 195 186 181 183 195 218 223 190 181 204 212 204 210 211 202 203 204 199 194 189 183 181 178 175 174 176 178 182 188 191 192 194 195 193 189 185 182 181 180 178 176 174 174 173 173 174 175 174 173 172 170 170 170 170 169 169 170 171 171 172 171 167
216 168 177 195 184 194 228 223 175 175 207 207 196 192 203 211 206 202 197 181 160 151 167 177 163 158 170 182 186 195 203 191 190 200 203 208 217 211 205 208 201 194 194 191 185 182 180 178 179 181 183 186 188 191 194 194 195 195 191 185 182 181 179 178 177 175 174 174 175 176 177 177 175 173 171 171 171 172 172 172 175 179 180 180 179 174
141 161 180 188 197 229 264 270 111 98 291 253 235 222 215 199 182 179 174 148 140 143 157 167 172 170 176 186 178 165 177 201 201 191 193 210 219 211 209 208 197 191 191 189 187 187 186 186 187 187 188 189 189 190 193 193 193 194 191 187 184 182 179 178 177 176 174 175 177 177 179 179 177 175 174 172 172 174 176 177 181 183 182 180 179 178
148 172 173 161 194 230 239 205 167 149 196 233 225 214 216 194 156 153 157 159 166 173 166 160 169 183 178 182 172 163 179 204 199 186 196 211 216 213 204 191 186 189 189 187 189 192 194 196 196 192 191 193 192 190 191 193 193 193 192 190 187 185 182 179 177 176 176 178 180 180 181 180 178 177 177 175 175 175 173 174 180 182 181 181 181 178
181 183 173 171 199 227 224 197 177 167 205 228 209 191 193 176 155 161 177 184 191 198 181 165 165 179 203 227 192 175 181 193 185 182 199 219 220 213 203 192 187 188 188 189 191 194 198 201 199 197 196 195 193 192 193 194 194 193 193 192 190 188 186 182 179 178 180 182 184 183 182 181 179 178 178 178 179 179 176 172 172 177 182 183 179 173
Height
825 834 838 838 840 841 841 841 840 838 836 837 838 838 837 837 835 829 826 826 825 828 831 829 830 826 822 820 817 819 822 821 821 820 819 819 819 819 819 818 817 816 813 811 813 815 815 817 819 821 823 824 826 827 829 831 832 832 834 835 837 839 841 843 845 846 848 850 851 852 853 853 854 856 857 858 859 860 861 863 864 864 865 866 867 868
826 835 836 832 832 835 837 837 836 836 838 839 839 839 839 840 835 828 828 829 827 829 829 830 832 828 824 820 817 820 822 818 816 816 816 816 816 816 815 815 814 813 811 811 812 812 814 815 816 818 820 821 822 824 826 827 828 830 831 832 834 836 838 840 841 843 844 845 847 848 849 850 852 853 854 855 856 858 859 861 861 862 863 864 865 866
833 835 831 826 826 829 832 834 835 838 839 840 841 842 840 839 836 831 830 830 829 829 829 831 833 827 822 820 818 821 819 814 812 812 812 812 812 813 812 811 812 812 810 810 810 810 811 812 813 815 816 817 818 820 822 824 825 827 828 829 831 833 835 836 838 839 840 842 844 845 847 848 850 851 852 853 855 856 857 858 859 860 861 862 863 864
835 828 822 821 822 825 831 832 834 838 840 839 840 841 840 838 837 833 830 831 830 831 831 832 832 826 821 819 816 816 815 811 809 810 810 810 809 806 806 807 808 808 808 808 807 807 808 810 811 812 812 813 815 817 819 821 823 824 825 827 828 830 831 833 835 836 838 840 842 844 846 848 849 850 851 852 853 854 855 856 857 858 859 860 861 862
823 816 815 820 822 824 830 833 834 839 841 839 837 837 835 832 832 830 829 831 831 833 832 832 834 826 818 819 812 808 812 811 809 810 809 808 806 804 804 805 804 803 803 804 804 804 805 806 807 807 808 810 812 813 815 817 819 820 822 824 825 827 828 830 832 833 836 838 841 843 845 847 848 848 849 850 850 850 852 853 854 856 857 858 859 860
818 813 814 820 824 825 829 832 832 836 841 840 833 829 827 824 826 830 831 832 836 837 831 833 840 830 818 819 813 808 812 810 808 809 806 804 803 803 804 801 800 801 801 801 801 801 802 802 803 804 805 807 808 809 811 813 815 817 819 821 823 824 825 827 829 831 834 836 837 840 841 842 843 844 844 844 845 847 849 850 852 854 855 856 857 858
815 813 813 818 823 825 829 830 828 830 840 841 829 821 823 823 825 831 831 831 837 839 834 836 840 834 822 812 808 812 812 806 806 807 803 802 801 800 800 796 797 799 799 800 800 799 800 800 801 802 802 804 805 806 809 811 813 815 817 819 821 822 823 825 827 829 832 833 835 836 837 837 838 839 840 841 844 846 848 850 852 853 854 855 856 856
811 815 816 818 822 826 829 829 824 826 835 835 824 820 822 822 823 827 829 831 834 836 837 838 837 838 832 813 808 817 812 803 803 802 799 799 798 796 795 794 794 795 795 796 797 797 798 798 798 798 799 800 801 803 806 808 810 813 815 817 818 820 822 823 825 827 829 831 832 833 834 836 836 837 839 842 844 846 848 849 851 852 853 854 854 855
807 812 815 816 822 827 826 822 817 822 829 824 821 824 822 821 823 826 829 833 836 838 839 839 839 842 836 817 812 816 809 802 798 794 792 793 793 793 791 791 791 791 793 794 794 794 795 795 795 795 796 797 799 801 804 806 808 810 812 815 817 818 820 822 824 825 827 828 830 832 833 834 835 837 840 842 844 845 847 848 849 850 851 852 853 853
809 811 809 810 817 820 818 815 813 816 820 819 823 827 824 827 831 831 833 832 836 841 838 837 838 841 835 817 810 812 807 802 795 789 788 787 789 791 789 788 789 789 792 792 793 793 792 793 793 794 796 796 798 800 802 804 806 808 810 812 814 816 817 819 821 823 825 827 828 830 831 832 834 837 839 841 843 844 845 846 848 849 850 851 851 852
813 812 810 810 813 813 811 815 817 815 815 817 821 822 823 828 829 832 835 832 839 844 837 837 839 840 837 820 808 808 802 797 793 789 787 784 785 788 788 788 788 789 790 790 791 792 792 792 793 794 795 795 797 799 801 802 804 806 808 810 811 813 815 817 819 821 822 824 826 827 829 830 833 835 838 839 840 842 843 845 846 847 848 849 850 851
813 813 812 812 814 813 811 817 821 819 817 816 816 819 826 833 832 835 839 838 846 847 838 844 847 842 841 823 802 800 798 796 796 791 785 782 782 783 785 786 787 788 788 788 790 790 791 792 792 793 793 794 796 797 799 800 802 804 806 807 809 810 812 814 816 818 820 822 823 825 827 829 831 833 835 836 838 840 841 843 845 846 847 848 849 850
813 813 814 813 814 812 811 817 823 823 821 816 816 823 833 843 847 847 847 848 851 846 841 849 849 841 837 819 800 798 794 790 794 793 787 784 783 781 782 785 786 788 788 787 788 789 790 791 791 791 791 792 794 795 797 798 800 802 803 805 807 808 810 812 814 816 817 819 821 823 825 828 830 832 833 835 837 838 840 841 843 844 845 847 848 848
815 815 813 811 812 811 810 815 821 826 825 819 819 825 834 847 856 857 857 858 853 844 843 850 846 839 831 812 796 793 787 782 788 792 788 785 784 781 782 785 787 788 787 787 788 789 790 790 790 790 790 791 792 793 795 796 798 800 801 803 804 806 808 809 811 813 815 817 819 822 824 826 828 830 832 834 835 837 839 840 841 843 844 845 846 847
814 815 811 808 810 811 810 811 814 816 820 819 815 819 827 835 843 848 848 848 844 840 845 851 843 830 817 801 792 790 787 785 787 790 789 787 786 786 787 788 787 786 787 788 788 789 789 790 790 790 790 791 792 792 793 795 796 797 799 800 802 803 805 807 809 811 813 815 818 820 822 824 827 829 831 833 834 836 837 839 840 841 842 843 844 845
807 810 810 812 814 812 810 812 812 811 817 821 817 817 822 821 824 836 842 839 839 841 843 843 834 819 806 794 788 789 789 786 785 787 787 785 786 788 787 786 786 786 787 787 788 788 788 789 789 789 790 790 791 792 793 793 795 796 797 799 800 802 804 806 808 809 812 814 816 819 821 823 825 827 829 831 833 834 836 838 839 840 841 842 844 845
803 810 814 814 814 812 812 813 811 811 815 821 822 820 821 818 816 829 844 846 845 841 837 835 826 814 808 795 783 783 784 781 782 784 782 781 784 786 783 783 785 785 785 786 787 787 787 788 788 788 788 789 790 791 792 793 794 795 796 798 800 801 803 804 806 808 811 813 815 817 819 822 824 826 828 829 831 833 835 836 838 839 840 842 843 844
797 810 817 812 810 813 817 815 812 812 813 816 820 817 816 820 819 822 835 845 847 842 834 833 825 813 812 802 785 781 782 777 776 777 778 781 784 784 782 782 783 784 785 787 787 787 787 787 787 787 788 789 789 790 791 792 794 795 796 797 799 800 802 804 806 807 810 812 814 816 818 820 822 824 826 828 830 832 833 835 836 838 840 841 842 843
788 804 819 817 813 814 815 813 812 814 815 813 814 811 811 820 824 823 829 837 843 841 831 828 827 819 813 802 785 780 779 774 772 772 776 779 779 780 781 781 782 784 786 786 786 787 787 787 787 787 788 788 789 790 790 792 793 794 796 797 798 800 802 803 806 807 809 811 813 815 817 819 821 823 825 827 829 831 832 834 835 837 838 840 841 841
784 796 814 819 816 814 813 813 814 815 815 815 814 813 811 814 817 818 823 827 831 835 830 825 824 816 805 795 783 776 775 771 769 771 773 774 774 777 779 778 780 782 784 785 786 787 787 787 787 787 788 788 788 789 790 791 792 793 795 797 798 800 802 803 806 807 809 811 813 815 817 819 821 823 825 826 828 830 831 833 834 836 837 838 839 840
783 790 805 819 819 815 813 812 811 810 811 812 813 815 815 814 816 816 819 822 821 824 827 826 821 805 790 787 779 771 770 766 765 770 771 771 771 775 778 778 779 781 783 784 786 787 788 788 788 788 788 789 789 789 790 790 792 793 794 796 798 799 801 803 805 807 809 811 813 814 816 819 821 822 824 826 828 829 831 832 834 835 836 837 838 839
784 790 803 818 820 813 810 809 810 808 807 808 809 810 809 810 815 818 822 823 818 817 819 821 817 793 776 778 775 767 765 764 767 772 771 768 770 774 777 778 779 780 781 784 785 787 788 787 788 788 789 790 790 790 791 791 792 793 794 796 797 799 801 803 805 807 808 810 812 814 816 818 820 822 824 825 827 828 830 831 833 834 835 836 838 839
783 792 803 815 815 810 809 813 818 816 811 811 812 808 807 807 808 811 817 818 817 818 818 822 815 785 766 772 772 766 765 767 773 776 772 770 772 774 776 777 780 781 781 783 785 786 787 787 788 788 789 790 790 791 791 792 792 793 794 796 797 799 801 802 804 806 808 810 811 813 816 818 820 821 823 824 826 827 829 830 832 833 835 836 837 838
780 787 799 811 813 809 808 812 817 818 814 812 813 810 809 809 807 808 811 811 813 813 814 822 813 779 762 771 773 772 773 773 776 778 774 771 771 772 774 776 779 780 782 784 785 786 787 787 788 789 789 790 790 791 791 792 793 794 795 796 797 798 800 801 803 805 807 809 811 813 815 817 819 820 822 823 825 826 828 829 831 833 834 835 836 837
773 783 795 808 814 814 814 814 812 814 815 810 810 811 807 807 811 813 813 813 810 804 805 813 802 773 765 775 776 777 778 773 772 776 775 771 769 771 774 776 778 780 782 784 786 787 788 788 788 788 788 789 789 790 791 791 792 793 794 795 796 798 799 801 803 804 806 808 810 812 814 816 818 819 821 822 824 825 827 828 830 832 833 834 835 837
766 776 783 793 804 808 807 803 799 805 813 809 805 806 804 805 806 805 809 811 805 803 804 799 784 771 771 776 775 774 773 770 768 770 773 773 773 774 775 777 779 780 782 784 785 787 787 787 788 788 788 789 789 789 790 791 792 792 793 795 796 797 799 800 802 804 805 807 809 811 813 815 817 818 820 821 823 825 826 828 830 831 833 834 835 836
764 772 772 771 778 780 779 780 782 790 802 801 799 802 803 804 803 803 807 803 797 804 803 785 776 778 776 773 770 767 767 768 767 766 768 771 773 775 776 777 780 781 783 784 785 787 787 787 788 787 788 789 789 789 790 790 791 792 792 794 795 797 798 800 802 803 805 807 808 810 812 813 815 817 819 821 822 824 826 827 829 830 832 834 835 836
760 769 769 765 768 768 766 771 777 781 786 789 793 798 799 802 803 802 800 790 789 799 792 775 776 782 778 772 768 764 764 766 765 765 766 768 770 773 776 778 780 781 783 785 785 785 786 786 787 787 788 789 789 790 790 790 791 792 793 793 795 796 798 799 801 803 805 806 807 809 811 813 815 817 818 820 822 824 825 827 829 830 831 833 834 836
753 762 767 768 773 771 767 772 779 779 779 783 788 791 794 799 798 794 791 787 788 789 778 771 773 771 772 773 767 763 764 762 762 765 769 770 769 770 773 776 778 781 782 783 783 783 783 784 786 787 787 788 788 789 789 790 791 792 793 794 795 796 798 799 801 802 804 806 807 809 811 812 815 816 818 820 821 823 825 827 829 830 831 832 833 835
751 759 767 769 773 773 771 777 780 778 779 784 787 787 789 790 786 783 783 785 787 779 770 774 774 765 764 767 763 761 762 761 764 767 768 767 764 766 771 774 776 779 779 778 778 779 781 782 784 786 786 786 786 786 787 788 790 791 792 793 795 796 797 799 800 802 803 805 807 808 810 812 814 816 817 819 821 823 825 826 828 829 831 832 834 835
752 761 769 769 774 776 776 782 785 781 779 782 785 785 784 783 783 782 781 784 786 779 773 779 779 766 760 759 758 761 763 764 767 766 763 762 762 766 771 773 774 775 775 774 774 776 780 781 783 784 783 782 782 783 784 786 788 790 791 793 794 795 797 798 800 801 803 805 806 808 810 811 813 815 816 818 820 822 823 825 827 829 831 833 834 835
754 765 770 771 776 776 776 785 791 786 784 786 784 780 778 779 781 782 781 781 781 777 780 787 778 762 758 758 758 763 766 766 765 762 760 760 762 767 768 767 769 769 769 770 772 774 777 778 778 778 778 779 780 781 782 784 786 788 789 790 792 794 796 797 799 801 802 804 805 807 808 810 811 813 815 817 819 820 822 823 825 828 830 832 833 834
752 759 767 771 773 777 784 789 787 787 793 787 769 760 767 775 778 780 780 777 773 772 777 776 759 750 756 760 760 763 763 762 761 759 757 757 760 765 765 762 762 762 762 765 768 770 772 771 772 771 772 774 775 776 778 780 782 784 786 788 791 792 794 796 797 799 800 802 803 805 807 808 810 812 814 816 818 819 821 823 825 827 829 830 832 833
752 753 763 767 765 780 795 789 784 793 792 768 744 742 756 768 772 774 771 767 767 767 764 756 747 749 756 756 756 759 757 756 758 756 754 755 757 761 761 760 759 758 759 762 763 765 765 765 765 766 767 769 770 773 776 779 780 783 785 788 790 791 793 794 795 797 798 800 802 803 805 807 808 811 813 815 817 818 820 822 824 826 828 829 830 832
751 755 763 764 767 786 797 788 787 791 772 747 742 745 747 752 759 761 758 758 763 765 760 753 749 750 753 752 755 758 755 753 756 755 753 753 754 755 756 756 756 755 756 758 758 759 759 759 760 761 762 764 767 771 774 777 779 782 784 787 788 790 792 793 794 795 796 798 800 801 803 805 807 809 811 813 816 817 819 821 823 825 826 827 829 831
747 753 760 767 776 789 792 783 777 770 751 741 749 752 748 751 758 762 764 762 759 759 758 752 745 747 752 753 756 758 755 754 755 754 751 751 752 753 751 749 749 750 750 749 749 750 750 750 752 753 756 760 764 768 771 773 777 780 782 785 787 789 791 792 792 794 795 796 798 799 801 803 805 807 809 811 814 816 818 820 821 823 824 826 828 829
744 746 752 766 776 779 782 778 767 759 749 739 740 745 747 748 751 757 762 755 745 747 752 747 743 748 752 752 753 754 755 755 753 748 746 749 750 748 746 744 743 744 743 743 743 743 744 745 747 750 753 757 761 764 767 771 774 777 780 783 785 787 789 790 791 792 793 794 796 797 799 801 803 805 807 810 812 814 816 818 820 821 823 824 826 828
744 744 743 755 770 774 776 777 773 768 753 734 731 737 737 737 740 747 753 746 734 737 745 744 743 747 749 749 750 752 755 756 748 739 741 746 744 742 742 742 741 741 741 741 742 743 744 746 748 750 753 756 759 762 765 768 771 774 778 780 782 785 786 788 789 790 791 792 793 796 798 800 802 804 806 808 810 812 814 816 817 819 821 823 824 827
748 749 743 748 765 771 767 768 771 764 743 728 728 732 734 735 737 747 757 749 732 731 738 740 741 743 743 744 745 749 755 754 743 734 737 740 738 739 741 740 739 740 739 740 741 741 743 745 747 750 753 755 758 760 763 766 769 772 775 777 780 782 783 784 786 787 788 790 792 794 796 798 801 802 804 807 809 810 812 814 816 818 819 821 823 825
751 752 751 751 758 763 762 762 762 750 735 729 727 729 735 735 737 752 763 747 728 725 729 733 737 737 735 738 744 749 751 746 737 732 733 736 735 737 738 737 737 738 738 738 740 740 742 744 745 748 750 752 754 757 760 764 767 770 773 776 778 780 781 782 784 786 788 790 792 794 796 797 799 801 803 805 807 809 811 813 814 816 818 820 822 824
753 752 755 753 754 760 761 758 753 740 729 727 728 730 734 735 741 752 746 728 721 723 725 729 731 730 732 738 743 744 741 734 730 729 732 734 734 735 737 737 737 737 737 738 739 739 741 742 743 745 746 748 751 755 758 761 765 767 770 773 776 778 780 782 785 787 789 791 792 794 795 797 799 800 802 804 805 808 810 811 813 814 816 818 821 823
749 751 755 754 757 763 760 756 755 740 720 719 730 736 732 731 737 736 723 718 721 720 723 729 726 724 731 736 736 735 730 726 728 730 733 734 733 734 736 737 736 737 737 737 738 739 740 741 743 745 746 749 751 753 756 759 762 765 768 771 772 774 777 780 783 785 787 790 792 793 795 797 798 799 801 803 804 806 808 810 812 813 815 817 819 821
735 742 749 749 751 758 760 760 753 732 712 715 730 736 730 723 720 716 714 720 721 715 720 727 724 723 728 729 729 730 727 725 729 731 732 733 733 735 737 737 737 737 737 737 738 738 739 740 742 744 745 748 750 752 755 758 760 764 766 768 770 773 775 778 780 783 785 787 789 792 793 795 797 798 800 802 803 805 806 808 810 812 814 816 818 819
725 727 733 737 739 745 751 747 729 710 707 712 714 716 719 715 711 709 710 716 720 719 721 722 721 724 726 721 721 726 726 727 728 729 730 732 733 736 737 737 738 737 737 737 737 737 738 739 741 743 745 747 749 751 753 755 757 761 763 765 769 771 774 777 779 781 784 785 788 790 792 794 796 797 799 800 802 804 805 807 809 811 813 815 816 818
711 707 710 718 723 723 720 716 707 702 708 710 703 702 706 708 711 711 707 708 714 719 722 720 717 721 724 722 720 721 724 726 726 728 730 730 732 735 736 736 737 737 737 738 738 739 740 740 741 744 745 747 749 750 752 754 756 758 761 763 767 769 772 775 778 780 782 784 786 789 790 792 795 796 797 799 801 802 804 805 807 809 811 813 815 816
704 703 702 706 712 711 704 700 704 708 710 709 708 708 707 706 711 713 709 708 710 713 719 720 715 716 722 724 722 721 723 725 726 728 730 730 732 735 735 735 736 736 736 738 738 740 742 742 744 745 746 748 750 750 752 754 755 756 759 761 765 768 770 773 775 778 781 783 785 787 789 790 792 794 796 798 800 801 802 803 805 807 809 811 813 813
705 706 704 704 709 712 703 696 700 705 705 705 707 710 710 710 712 713 710 709 711 713 718 720 718 719 722 723 722 720 721 724 726 726 728 730 730 731 733 734 735 735 736 737 737 739 741 742 743 745 746 747 749 750 752 754 756 757 759 761 764 767 769 772 774 776 779 781 783 785 787 789 790 792 794 796 798 799 801 802 804 806 807 809 809 810
700 703 705 704 705 703 695 694 702 704 704 706 707 707 707 707 710 713 713 713 714 717 718 720 721 721 721 721 721 719 720 724 725 723 726 729 729 730 732 733 733 734 736 737 738 739 740 741 742 744 745 746 748 750 752 754 756 758 760 762 764 766 769 771 773 775 777 780 782 784 786 787 789 790 792 794 796 797 799 801 803 804 805 806 807 808
698 700 700 699 701 699 695 700 708 706 704 708 709 706 706 706 707 712 715 715 716 716 717 719 721 721 720 720 721 719 718 721 724 724 726 728 728 730 731 731 733 735 736 737 739 739 740 741 742 743 745 746 748 750 752 754 756 758 760 762 764 766 768 771 773 775 777 779 781 783 784 786 787 789 790 791 793 795 797 799 801 802 803 804 805 807
694 694 695 697 699 696 691 693 699 697 696 702 705 704 708 710 711 712 714 714 714 714 715 717 719 721 722 721 721 720 717 718 723 726 726 726 728 729 730 731 734 735 736 738 739 740 741 742 742 743 745 746 747 749 751 752 754 756 758 760 762 765 767 769 771 774 776 777 778 780 782 783 785 787 788 788 790 793 795 798 800 800 801 802 804 805
686 684 688 690 689 688 686 689 693 692 691 697 703 706 710 713 712 711 711 713 713 715 716 716 716 718 720 721 721 721 718 719 723 725 724 726 727 728 729 731 732 734 736 737 738 739 740 741 742 743 744 745 747 749 750 751 753 754 756 758 760 762 764 766 768 770 772 774 775 777 778 780 781 783 785 787 789 791 792 795 797 799 800 801 802 804